PST,Max TemperatureF,Mean TemperatureF,Min TemperatureF,Max Dew PointF,MeanDew PointF,Min DewpointF,Max Humidity, Mean Humidity, Min Humidity, Max Sea Level PressureIn, Mean Sea Level PressureIn, Min Sea Level PressureIn, Max VisibilityMiles, Mean VisibilityMiles, Min VisibilityMiles, Max Wind SpeedMPH, Mean Wind SpeedMPH, Max Gust SpeedMPH,PrecipitationIn, CloudCover, Events, WindDirDegrees
2013-2-1,72,58,45,38,35,31,68,44,22,30.19,30.15,30.09,10,10,10,10,5,,0.00,0,,317
2013-2-2,72,61,50,37,33,28,59,38,20,30.25,30.17,30.11,10,10,10,20,7,,0.00,0,,319
2013-2-3,73,65,55,36,33,30,49,34,24,30.07,30.00,29.94,10,10,10,10,6,,0.00,4,,316
2013-2-4,75,62,48,36,30,22,61,34,13,30.05,29.97,29.91,10,10,10,18,6,26,0.00,0,,335
2013-2-5,73,59,45,35,30,26,56,35,17,30.00,29.91,29.84,10,10,10,10,4,,0.00,0,,256
2013-2-6,75,64,53,36,32,26,49,32,18,29.98,29.89,29.81,10,10,10,10,2,,0.00,0,,265
2013-2-7,73,60,46,31,28,26,54,31,19,30.07,29.94,29.76,10,10,10,13,3,21,0.00,0,,197
2013-2-8,64,55,46,40,31,19,77,42,18,29.81,29.76,29.68,10,10,10,24,13,28,0.00,3,Rain,249
2013-2-9,59,52,45,33,27,21,59,40,24,29.97,29.87,29.75,10,10,10,14,6,17,0.00,5,,263
2013-2-10,60,50,39,28,24,20,60,36,23,30.00,29.95,29.89,10,10,10,10,4,,0.00,3,,351
2013-2-11,57,51,45,27,17,8,44,28,14,30.20,30.08,29.98,10,10,10,26,13,34,0.00,1,,356
2013-2-12,62,52,42,16,12,8,32,22,12,30.33,30.25,30.20,10,10,10,22,10,28,0.00,0,,352
2013-2-13,68,56,43,25,22,16,39,27,18,30.24,30.16,30.07,10,10,10,22,9,29,0.00,0,,342
2013-2-14,73,59,45,28,25,20,48,28,15,30.18,30.12,30.06,10,10,10,25,10,37,0.00,0,,347
2013-2-15,73,64,54,25,21,17,33,21,12,30.28,30.22,30.18,10,10,10,26,17,33,0.00,0,,5
2013-2-16,75,64,54,25,22,19,30,22,12,30.25,30.10,29.93,10,10,10,14,8,16,0.00,0,,342
2013-2-17,78,60,43,23,17,8,43,22,7,29.92,29.83,29.74,10,10,10,15,5,24,0.00,0,,254
2013-2-18,72,60,48,24,20,14,33,23,14,30.01,29.90,29.82,10,10,10,15,5,,0.00,0,,344
2013-2-19,69,58,46,33,27,21,42,31,16,29.81,29.66,29.54,10,10,10,21,9,29,0.00,0,,213
2013-2-20,54,48,42,42,38,34,83,71,47,29.89,29.70,29.54,10,10,8,18,7,,0.08,8,Rain,251
2013-2-21,55,46,37,38,35,30,89,65,37,30.04,29.98,29.90,10,10,10,8,3,,0.00,1,,302
2013-2-22,64,50,36,34,26,16,86,45,16,30.18,30.11,30.06,10,10,10,14,5,20,0.00,0,,328
2013-2-23,70,54,39,28,22,9,60,32,16,30.08,29.93,29.74,10,10,10,31,7,38,0.00,2,,52
2013-2-24,61,54,46,13,10,6,26,18,12,30.18,30.09,29.99,10,10,10,30,17,39,0.00,0,,6
2013-2-25,64,54,44,18,14,11,34,22,13,30.25,30.12,29.99,10,10,10,12,7,17,0.00,0,,340
2013-2-26,64,52,39,18,12,7,40,21,10,30.17,30.07,29.99,10,10,10,28,9,36,0.00,0,,355
2013-2-27,64,55,46,16,7,-1,26,16,7,30.31,30.25,30.19,10,10,10,29,16,33,0.00,0,,9
2013-2-28,73,62,50,15,11,5,22,15,8,30.36,30.29,30.23,10,10,10,23,11,29,0.00,0,,346